Location: Aranbee
(34.0885°N, 118.2342°W)
Time: 22:01:19
(UTC+00:00)

Explorer 7 - Pass Details

Date: 06 August 2021
Orbit: 484 x 676 km, 50.3° (Epoch: 15 September)

Event Time Altitude Azimuth Distance (km) Brightness Sun altitude
Exits shadow 10:21:43 25° 37° (NE) 999 8.7 -29.0°
Drops below altitude 10° 10:23:28 10° 44° (NE) 1,674 10.2 -28.8°
Sets 10:25:41 0° 47° (NE) 2,571 11.5 -28.5°
